Year,Month,Day,Hour,Minute,Value (Times are PST for temperature in C)
2020,04,24,00,01,9.70
2020,04,24,00,02,9.70
2020,04,24,00,03,9.70
2020,04,24,00,09,9.60
2020,04,24,00,10,9.60
2020,04,24,00,11,9.50
2020,04,24,00,12,9.50
2020,04,24,00,13,9.50
2020,04,24,00,14,9.40
2020,04,24,00,15,9.40
2020,04,24,00,16,9.40
2020,04,24,00,17,9.40
2020,04,24,00,18,9.40
2020,04,24,00,19,9.40
2020,04,24,00,20,9.30
2020,04,24,00,21,9.30
2020,04,24,00,22,9.30
2020,04,24,00,23,9.30
2020,04,24,00,24,9.30
2020,04,24,00,25,9.30
2020,04,24,00,32,9.20
2020,04,24,00,33,9.20
2020,04,24,00,34,9.20
2020,04,24,00,35,9.20
2020,04,24,00,36,9.20
2020,04,24,00,37,9.20
2020,04,24,00,38,9.20
2020,04,24,00,39,9.20
2020,04,24,00,40,9.20
2020,04,24,00,41,9.20
2020,04,24,00,42,9.20
2020,04,24,00,43,9.20
2020,04,24,00,44,9.20
2020,04,24,00,45,9.20
2020,04,24,00,46,9.20
2020,04,24,00,47,9.20
2020,04,24,00,48,9.20
2020,04,24,00,49,9.20
2020,04,24,00,50,9.20
2020,04,24,00,51,9.20
2020,04,24,00,52,9.20
2020,04,24,00,53,9.20
2020,04,24,00,54,9.20
2020,04,24,00,55,9.20
2020,04,24,00,56,9.10
2020,04,24,00,57,9.10
2020,04,24,00,58,9.10
2020,04,24,00,59,9.10
2020,04,24,01,00,9.10
2020,04,24,01,01,9.10
2020,04,24,01,02,9.10
2020,04,24,01,03,9.00
2020,04,24,01,04,9.00
2020,04,24,01,05,9.00
2020,04,24,01,06,9.00
2020,04,24,01,07,9.00
2020,04,24,01,08,9.00
2020,04,24,01,09,9.00
2020,04,24,01,10,8.90
2020,04,24,01,11,8.90
2020,04,24,01,12,8.90
2020,04,24,01,13,8.90
2020,04,24,01,14,8.90
2020,04,24,01,15,8.90
2020,04,24,01,16,8.90
2020,04,24,01,17,8.90
2020,04,24,01,18,8.90
2020,04,24,01,19,8.80
2020,04,24,01,20,8.80
2020,04,24,01,21,8.80
2020,04,24,01,22,8.80
2020,04,24,01,23,8.80
2020,04,24,01,24,8.80
2020,04,24,01,25,8.80
2020,04,24,01,26,8.80
2020,04,24,01,27,8.80
2020,04,24,01,28,8.80
2020,04,24,01,29,8.80
2020,04,24,01,30,8.90
2020,04,24,01,31,8.90
2020,04,24,01,32,8.90
2020,04,24,01,33,8.90
2020,04,24,01,34,8.90
2020,04,24,01,35,8.90
2020,04,24,01,36,8.90
2020,04,24,01,37,8.90
2020,04,24,01,38,8.90
2020,04,24,01,39,8.90
2020,04,24,01,40,8.90
2020,04,24,01,41,8.90
2020,04,24,01,42,8.90
2020,04,24,01,43,8.90
2020,04,24,01,44,8.90
2020,04,24,01,45,8.90
2020,04,24,01,46,8.90
2020,04,24,01,47,8.80
2020,04,24,01,48,8.80
2020,04,24,01,49,8.80
2020,04,24,01,50,8.80
2020,04,24,01,51,8.80
2020,04,24,01,52,8.90
2020,04,24,01,53,8.90
2020,04,24,01,54,8.90
2020,04,24,01,55,8.90
2020,04,24,01,56,8.90
2020,04,24,01,57,9.00
2020,04,24,01,58,9.00
2020,04,24,01,59,9.00
2020,04,24,02,00,9.00
2020,04,24,02,01,9.00
2020,04,24,02,02,9.00
2020,04,24,02,03,9.10
2020,04,24,02,04,9.10
2020,04,24,02,05,9.10
2020,04,24,02,06,9.10
2020,04,24,02,07,9.10
2020,04,24,02,08,9.10
2020,04,24,02,09,9.10
2020,04,24,02,10,9.10
2020,04,24,02,11,9.00
2020,04,24,02,12,9.00
2020,04,24,02,13,9.00
2020,04,24,02,14,9.00
2020,04,24,02,15,9.00
2020,04,24,02,16,9.00
2020,04,24,02,17,9.00
2020,04,24,02,18,9.00
2020,04,24,02,19,9.00
2020,04,24,02,20,9.00
2020,04,24,02,21,9.00
2020,04,24,02,22,9.00
2020,04,24,02,23,9.00
2020,04,24,02,24,9.00
2020,04,24,02,26,9.00
2020,04,24,02,27,9.00
2020,04,24,02,28,9.00
2020,04,24,02,29,9.00
2020,04,24,02,31,9.00
2020,04,24,02,32,9.00
2020,04,24,02,33,9.00
2020,04,24,02,34,9.00
2020,04,24,02,36,9.00
2020,04,24,02,37,8.90
2020,04,24,02,38,8.90
2020,04,24,02,39,8.90
2020,04,24,02,41,8.90
2020,04,24,02,42,8.90
2020,04,24,02,43,8.90
2020,04,24,02,44,8.90
2020,04,24,02,46,8.90
2020,04,24,02,47,8.90
2020,04,24,02,48,8.90
2020,04,24,02,49,8.90
2020,04,24,02,51,8.90
2020,04,24,02,52,8.90
2020,04,24,02,53,8.80
2020,04,24,02,54,8.80
2020,04,24,02,56,8.80
2020,04,24,02,57,8.80
2020,04,24,02,58,8.80
2020,04,24,02,59,8.80
2020,04,24,03,01,8.80
2020,04,24,03,02,8.80
2020,04,24,03,03,8.80
2020,04,24,03,04,8.80
2020,04,24,03,06,8.70
2020,04,24,03,07,8.70
2020,04,24,03,08,8.70
2020,04,24,03,09,8.70
2020,04,24,03,11,8.70
2020,04,24,03,12,8.70
2020,04,24,03,13,8.70
2020,04,24,03,14,8.70
2020,04,24,03,16,8.70
2020,04,24,03,17,8.70
2020,04,24,03,18,8.70
2020,04,24,03,19,8.70
2020,04,24,03,21,8.70
2020,04,24,03,22,8.70
2020,04,24,03,23,8.70
2020,04,24,03,24,8.70
2020,04,24,03,26,8.70
2020,04,24,03,27,8.70
2020,04,24,03,28,8.70
2020,04,24,03,29,8.70
2020,04,24,03,31,8.70
2020,04,24,03,32,8.70
2020,04,24,03,33,8.70
2020,04,24,03,34,8.70
2020,04,24,03,36,8.70
2020,04,24,03,37,8.70
2020,04,24,03,38,8.60
2020,04,24,03,39,8.60
2020,04,24,03,41,8.60
2020,04,24,03,42,8.60
2020,04,24,03,43,8.60
2020,04,24,03,44,8.60
2020,04,24,03,46,8.60
2020,04,24,03,47,8.60
2020,04,24,03,48,8.60
2020,04,24,03,49,8.60
2020,04,24,03,51,8.50
2020,04,24,03,52,8.50
2020,04,24,03,53,8.50
2020,04,24,03,54,8.50
2020,04,24,03,55,8.50
2020,04,24,03,56,8.50
2020,04,24,03,57,8.50
2020,04,24,03,58,8.50
2020,04,24,03,59,8.50
2020,04,24,04,00,8.50
2020,04,24,04,01,8.40
2020,04,24,04,02,8.40
2020,04,24,04,03,8.40
2020,04,24,04,04,8.40
2020,04,24,04,06,8.40
2020,04,24,04,07,8.40
2020,04,24,04,08,8.40
2020,04,24,04,09,8.30
2020,04,24,04,10,8.30
2020,04,24,04,11,8.30
2020,04,24,04,12,8.30
2020,04,24,04,13,8.30
2020,04,24,04,14,8.30
2020,04,24,04,15,8.30
2020,04,24,04,16,8.30
2020,04,24,04,17,8.30
2020,04,24,04,18,8.30
2020,04,24,04,19,8.20
2020,04,24,04,20,8.20
2020,04,24,04,21,8.20
2020,04,24,04,22,8.20
2020,04,24,04,23,8.20
2020,04,24,04,24,8.20
2020,04,24,04,25,8.20
2020,04,24,04,26,8.20
2020,04,24,04,27,8.20
2020,04,24,04,28,8.20
2020,04,24,04,29,8.20
2020,04,24,04,30,8.20
2020,04,24,04,31,8.20
2020,04,24,04,32,8.20
2020,04,24,04,33,8.20
2020,04,24,04,34,8.20
2020,04,24,04,35,8.20
2020,04,24,04,36,8.20
2020,04,24,04,37,8.20
2020,04,24,04,38,8.20
2020,04,24,04,39,8.20
2020,04,24,04,40,8.20
2020,04,24,04,41,8.20
2020,04,24,04,42,8.20
2020,04,24,04,43,8.20
2020,04,24,04,44,8.20
2020,04,24,04,45,8.20
2020,04,24,04,46,8.20
2020,04,24,04,47,8.20
2020,04,24,04,48,8.20
2020,04,24,04,49,8.20
2020,04,24,04,50,8.20
2020,04,24,04,51,8.20
2020,04,24,04,52,8.20
2020,04,24,04,53,8.20
2020,04,24,04,54,8.20
2020,04,24,04,55,8.20
2020,04,24,04,56,8.20
2020,04,24,04,57,8.20
2020,04,24,04,58,8.20
2020,04,24,04,59,8.20
2020,04,24,05,00,8.20
2020,04,24,05,01,8.20
2020,04,24,05,02,8.20
2020,04,24,05,03,8.20
2020,04,24,05,04,8.20
2020,04,24,05,05,8.20
2020,04,24,05,06,8.20
2020,04,24,05,07,8.20
2020,04,24,05,08,8.20
2020,04,24,05,09,8.20
2020,04,24,05,10,8.20
2020,04,24,05,11,8.20
2020,04,24,05,12,8.20
2020,04,24,05,13,8.20
2020,04,24,05,14,8.20
2020,04,24,05,15,8.20
2020,04,24,05,16,8.10
2020,04,24,05,17,8.10
2020,04,24,05,18,8.10
2020,04,24,05,19,8.10
2020,04,24,05,20,8.10
2020,04,24,05,21,8.00
2020,04,24,05,22,8.00
2020,04,24,05,23,8.00
2020,04,24,05,24,8.00
2020,04,24,05,25,8.00
2020,04,24,05,26,7.90
2020,04,24,05,27,7.90
2020,04,24,05,28,7.90
2020,04,24,05,29,7.90
2020,04,24,05,30,7.90
2020,04,24,05,31,7.90
2020,04,24,05,32,7.90
2020,04,24,05,33,7.80
2020,04,24,05,34,7.80
2020,04,24,05,35,7.80
2020,04,24,05,36,7.80
2020,04,24,05,37,7.80
2020,04,24,05,38,7.80
2020,04,24,05,39,7.80
2020,04,24,05,40,7.80
2020,04,24,05,41,7.80
2020,04,24,05,42,7.80
2020,04,24,05,43,7.80
2020,04,24,05,44,7.80
2020,04,24,05,45,7.70
2020,04,24,05,46,7.70
2020,04,24,05,47,7.70
2020,04,24,05,48,7.70
2020,04,24,05,49,7.70
2020,04,24,05,50,7.70
2020,04,24,05,51,7.70
2020,04,24,05,52,7.70
2020,04,24,05,53,7.70
2020,04,24,05,54,7.60
2020,04,24,05,55,7.60
2020,04,24,05,56,7.60
2020,04,24,05,57,7.60
2020,04,24,05,58,7.60
2020,04,24,05,59,7.60
2020,04,24,06,00,7.60
2020,04,24,06,01,7.60
2020,04,24,06,02,7.60
2020,04,24,06,03,7.60
2020,04,24,06,04,7.60
2020,04,24,06,05,7.60
2020,04,24,06,06,7.50
2020,04,24,06,07,7.50
2020,04,24,06,08,7.50
2020,04,24,06,09,7.50
2020,04,24,06,10,7.50
2020,04,24,06,11,7.50
2020,04,24,06,13,7.50
2020,04,24,06,14,7.50
2020,04,24,06,16,7.40
2020,04,24,06,17,7.40
2020,04,24,06,18,7.40
2020,04,24,06,19,7.50
2020,04,24,06,21,7.50
2020,04,24,06,22,7.50
2020,04,24,06,23,7.50
2020,04,24,06,24,7.50
2020,04,24,06,26,7.50
2020,04,24,06,27,7.50
2020,04,24,06,28,7.50
2020,04,24,06,29,7.50
2020,04,24,06,30,7.60
2020,04,24,06,32,7.60
2020,04,24,06,33,7.60
2020,04,24,06,34,7.60
2020,04,24,06,36,7.70
2020,04,24,06,37,7.70
2020,04,24,06,38,7.70
2020,04,24,06,39,7.70
2020,04,24,06,41,7.70
2020,04,24,06,42,7.70
2020,04,24,06,43,7.70
2020,04,24,06,44,7.80
2020,04,24,06,46,7.80
2020,04,24,06,47,7.80
2020,04,24,06,48,7.80
2020,04,24,06,49,7.80
2020,04,24,06,51,7.90
2020,04,24,06,52,8.00
2020,04,24,06,53,8.00
2020,04,24,06,54,8.10
2020,04,24,06,56,8.10
2020,04,24,06,57,8.20
2020,04,24,06,58,8.20
2020,04,24,06,59,8.20
2020,04,24,07,01,8.30
2020,04,24,07,02,8.30
2020,04,24,07,03,8.30
2020,04,24,07,04,8.30
2020,04,24,07,06,8.40
2020,04,24,07,07,8.40
2020,04,24,07,08,8.50
2020,04,24,07,09,8.50
2020,04,24,07,11,8.60
2020,04,24,07,12,8.60
2020,04,24,07,13,8.60
2020,04,24,07,14,8.60
2020,04,24,07,16,8.60
2020,04,24,07,17,8.70
2020,04,24,07,18,8.70
2020,04,24,07,19,8.70
2020,04,24,07,20,8.70
2020,04,24,07,21,8.70
2020,04,24,07,22,8.70
2020,04,24,07,23,8.70
2020,04,24,07,24,8.70
2020,04,24,07,25,8.70
2020,04,24,07,26,8.70
2020,04,24,07,27,8.70
2020,04,24,07,28,8.70
2020,04,24,07,29,8.70
2020,04,24,07,30,8.70
2020,04,24,07,31,8.70
2020,04,24,07,32,8.70
2020,04,24,07,33,8.70
2020,04,24,07,34,8.80
2020,04,24,07,35,8.80
2020,04,24,07,36,8.80
2020,04,24,07,37,8.80
2020,04,24,07,38,8.80
2020,04,24,07,39,8.80
2020,04,24,07,40,8.80
2020,04,24,07,41,8.80
2020,04,24,07,42,8.80
2020,04,24,07,43,8.80
2020,04,24,07,44,8.80
2020,04,24,07,45,8.80
2020,04,24,07,46,8.80
2020,04,24,07,47,8.80
2020,04,24,07,48,8.80
2020,04,24,07,49,8.80
2020,04,24,07,50,8.90
2020,04,24,07,51,8.90
2020,04,24,07,52,8.90
2020,04,24,07,53,8.90
2020,04,24,07,54,9.00
2020,04,24,07,55,9.00
2020,04,24,07,56,9.00
2020,04,24,07,57,9.00
2020,04,24,07,58,9.00
2020,04,24,07,59,9.00
2020,04,24,08,00,9.00
2020,04,24,08,01,9.00
2020,04,24,08,02,9.00
2020,04,24,08,03,9.00
2020,04,24,08,04,9.00
2020,04,24,08,05,9.10
2020,04,24,08,06,9.10
2020,04,24,08,07,9.10
2020,04,24,08,08,9.10
2020,04,24,08,09,9.10
2020,04,24,08,10,9.10
2020,04,24,08,11,9.10
2020,04,24,08,12,9.10
2020,04,24,08,13,9.10
2020,04,24,08,14,9.10
2020,04,24,08,15,9.20
2020,04,24,08,16,9.20
2020,04,24,08,17,9.20
2020,04,24,08,18,9.20
2020,04,24,08,19,9.20
2020,04,24,08,20,9.20
2020,04,24,08,21,9.20
2020,04,24,08,22,9.20
2020,04,24,08,23,9.20
2020,04,24,08,24,9.20
2020,04,24,08,25,9.20
2020,04,24,08,26,9.20
2020,04,24,08,27,9.20
2020,04,24,08,28,9.20
2020,04,24,08,29,9.20
2020,04,24,08,30,9.20
2020,04,24,08,31,9.20
2020,04,24,08,32,9.20
2020,04,24,08,33,9.20
2020,04,24,08,34,9.30
2020,04,24,08,35,9.30
2020,04,24,08,36,9.30
2020,04,24,08,37,9.30
2020,04,24,08,38,9.30
2020,04,24,08,39,9.30
2020,04,24,08,40,9.30
2020,04,24,08,41,9.30
2020,04,24,08,42,9.30
2020,04,24,08,43,9.30
2020,04,24,08,44,9.30
2020,04,24,08,45,9.20
2020,04,24,08,46,9.20
2020,04,24,08,47,9.20
2020,04,24,08,48,9.20
2020,04,24,08,49,9.20
2020,04,24,08,50,9.20
2020,04,24,08,51,9.20
2020,04,24,08,52,9.20
2020,04,24,08,53,9.20
2020,04,24,08,54,9.20
2020,04,24,08,55,9.30
2020,04,24,08,56,9.30
2020,04,24,08,57,9.30
2020,04,24,08,58,9.30
2020,04,24,08,59,9.40
2020,04,24,09,00,9.40
2020,04,24,09,01,9.40
2020,04,24,09,02,9.40
2020,04,24,09,03,9.50
2020,04,24,09,04,9.50
2020,04,24,09,05,9.50
2020,04,24,09,06,9.50
2020,04,24,09,07,9.50
2020,04,24,09,08,9.60
2020,04,24,09,09,9.60
2020,04,24,09,10,9.60
2020,04,24,09,11,9.60
2020,04,24,09,12,9.60
2020,04,24,09,13,9.60
2020,04,24,09,14,9.60
2020,04,24,09,15,9.70
2020,04,24,09,16,9.70
2020,04,24,09,17,9.70
2020,04,24,09,18,9.70
2020,04,24,09,19,9.70
2020,04,24,09,20,9.70
2020,04,24,09,21,9.70
2020,04,24,09,22,9.70
2020,04,24,09,23,9.70
2020,04,24,09,24,9.80
2020,04,24,09,25,9.80
2020,04,24,09,26,9.80
2020,04,24,09,27,9.80
2020,04,24,09,28,9.90
2020,04,24,09,29,9.90
2020,04,24,09,30,9.90
2020,04,24,09,31,9.90
2020,04,24,09,32,9.90
2020,04,24,09,33,9.90
2020,04,24,09,34,9.90
2020,04,24,09,35,9.90
2020,04,24,09,36,9.90
2020,04,24,09,37,9.90
2020,04,24,09,38,9.90
2020,04,24,09,39,9.90
2020,04,24,09,40,9.90
2020,04,24,09,41,9.90
2020,04,24,09,42,9.90
2020,04,24,09,43,9.90
2020,04,24,09,44,9.90
2020,04,24,09,45,9.90
2020,04,24,09,46,9.90
2020,04,24,09,47,9.90
2020,04,24,09,49,9.90
2020,04,24,09,51,9.90
2020,04,24,09,52,9.90
2020,04,24,09,53,9.90
2020,04,24,09,54,9.90
2020,04,24,09,56,9.90
2020,04,24,09,57,9.90
2020,04,24,09,58,9.90
2020,04,24,09,59,10.10
2020,04,24,10,01,10.10
2020,04,24,10,02,10.10
2020,04,24,10,03,10.10
2020,04,24,10,04,10.10
2020,04,24,10,06,10.10
2020,04,24,10,07,10.10
2020,04,24,10,08,9.90
2020,04,24,10,09,9.90
2020,04,24,10,11,10.10
2020,04,24,10,12,10.10
2020,04,24,10,13,10.10
2020,04,24,10,14,10.10
2020,04,24,10,16,10.10
2020,04,24,10,17,10.10
2020,04,24,10,18,10.10
2020,04,24,10,19,10.10
2020,04,24,10,21,10.10
2020,04,24,10,22,10.10
2020,04,24,10,23,10.10
2020,04,24,10,24,10.10
2020,04,24,10,26,10.10
2020,04,24,10,27,10.10
2020,04,24,10,28,10.10
2020,04,24,10,29,10.10
2020,04,24,10,31,10.10
2020,04,24,10,32,10.10
2020,04,24,10,33,10.10
2020,04,24,10,34,10.10
2020,04,24,10,36,10.20
2020,04,24,10,37,10.20
2020,04,24,10,38,10.30
2020,04,24,10,39,10.40
2020,04,24,10,41,10.40
2020,04,24,10,42,10.40
2020,04,24,10,43,10.40
2020,04,24,10,44,10.40
2020,04,24,10,46,10.40
2020,04,24,10,47,10.40
2020,04,24,10,48,10.40
2020,04,24,10,49,10.40
2020,04,24,10,51,10.40
2020,04,24,10,52,10.40
2020,04,24,10,53,10.40
2020,04,24,10,54,10.40
2020,04,24,10,56,10.40
2020,04,24,10,57,10.40
2020,04,24,10,58,10.40
2020,04,24,10,59,10.40
2020,04,24,11,01,10.40
2020,04,24,11,02,10.40
2020,04,24,11,03,10.40
2020,04,24,11,04,10.40
2020,04,24,11,06,10.60
2020,04,24,11,07,10.60
2020,04,24,11,08,10.60
2020,04,24,11,09,10.60
2020,04,24,11,10,10.60
2020,04,24,11,11,10.60
2020,04,24,11,12,10.60
2020,04,24,11,13,10.70
2020,04,24,11,14,10.70
2020,04,24,11,15,10.70
2020,04,24,11,16,10.70
2020,04,24,11,17,10.70
2020,04,24,11,18,10.70
2020,04,24,11,19,10.80
2020,04,24,11,20,10.80
2020,04,24,11,21,10.80
2020,04,24,11,22,10.90
2020,04,24,11,23,10.90
2020,04,24,11,24,10.90
2020,04,24,11,25,11.10
2020,04,24,11,26,11.10
2020,04,24,11,27,11.10
2020,04,24,11,28,11.10
2020,04,24,11,29,11.20
2020,04,24,11,30,11.20
2020,04,24,11,31,11.20
2020,04,24,11,32,11.30
2020,04,24,11,33,11.30
2020,04,24,11,34,11.30
2020,04,24,11,35,11.30
2020,04,24,11,36,11.30
2020,04,24,11,37,11.20
2020,04,24,11,38,11.30
2020,04,24,11,39,11.30
2020,04,24,11,40,11.30
2020,04,24,11,41,11.30
2020,04,24,11,42,11.30
2020,04,24,11,43,11.20
2020,04,24,11,44,11.20
2020,04,24,11,45,11.20
2020,04,24,11,46,11.20
2020,04,24,11,47,11.10
2020,04,24,11,48,11.10
2020,04,24,11,49,11.10
2020,04,24,11,50,11.10
2020,04,24,11,51,11.10
2020,04,24,11,52,10.90
2020,04,24,11,53,10.90
2020,04,24,11,54,10.90
2020,04,24,11,55,10.90
2020,04,24,11,56,10.90
2020,04,24,11,57,10.90
2020,04,24,11,58,10.90
2020,04,24,11,59,10.90
2020,04,24,12,00,10.90
2020,04,24,12,01,10.90
2020,04,24,12,02,10.90
2020,04,24,12,03,10.90
2020,04,24,12,04,10.90
2020,04,24,12,05,10.90
2020,04,24,12,06,10.90
2020,04,24,12,07,10.90
2020,04,24,12,08,10.90
2020,04,24,12,09,10.90
2020,04,24,12,10,10.90
2020,04,24,12,11,10.90
2020,04,24,12,12,10.90
2020,04,24,12,13,10.90
2020,04,24,12,14,10.90
2020,04,24,12,15,11.10
2020,04,24,12,16,11.10
2020,04,24,12,17,11.10
2020,04,24,12,18,10.90
2020,04,24,12,19,10.90
2020,04,24,12,20,10.90
2020,04,24,12,21,10.90
2020,04,24,12,22,10.90
2020,04,24,12,23,11.10
2020,04,24,12,24,10.90
2020,04,24,12,25,10.90
2020,04,24,12,26,11.10
2020,04,24,12,27,11.10
2020,04,24,12,28,11.10
2020,04,24,12,29,11.10
2020,04,24,12,30,11.10
2020,04,24,12,32,11.10
2020,04,24,12,33,11.10
2020,04,24,12,34,11.10
2020,04,24,12,35,11.10
2020,04,24,12,36,11.10
2020,04,24,12,37,11.10
2020,04,24,12,38,11.10
2020,04,24,12,39,11.10
2020,04,24,12,40,11.10
2020,04,24,12,41,11.10
2020,04,24,12,42,11.10
2020,04,24,12,43,11.10
2020,04,24,12,44,11.10
2020,04,24,12,45,11.10
2020,04,24,12,46,11.10
2020,04,24,12,47,11.10
2020,04,24,12,48,11.10
2020,04,24,12,49,11.20
2020,04,24,12,50,11.20
2020,04,24,12,51,11.30
2020,04,24,12,52,11.30
2020,04,24,12,53,11.40
2020,04,24,12,54,11.40
2020,04,24,12,55,11.40
2020,04,24,12,56,11.40
2020,04,24,12,57,11.40
2020,04,24,12,58,11.40
2020,04,24,12,59,11.40
2020,04,24,13,00,11.30
2020,04,24,13,01,11.30
2020,04,24,13,02,11.30
2020,04,24,13,03,11.30
2020,04,24,13,04,11.30
2020,04,24,13,05,11.30
2020,04,24,13,06,11.30
2020,04,24,13,07,11.40
2020,04,24,13,08,11.40
2020,04,24,13,09,11.40
2020,04,24,13,10,11.40
2020,04,24,13,11,11.40
2020,04,24,13,12,11.40
2020,04,24,13,13,11.40
2020,04,24,13,14,11.60
2020,04,24,13,15,11.60
2020,04,24,13,16,11.60
2020,04,24,13,17,11.60
2020,04,24,13,18,11.60
2020,04,24,13,19,11.60
2020,04,24,13,20,11.60
2020,04,24,13,21,11.60
2020,04,24,13,22,11.60
2020,04,24,13,23,11.70
2020,04,24,13,24,11.70
2020,04,24,13,25,11.80
2020,04,24,13,26,11.80
2020,04,24,13,27,11.80
2020,04,24,13,29,12.00
2020,04,24,13,31,12.10
2020,04,24,13,32,12.20
2020,04,24,13,33,12.20
2020,04,24,13,34,12.10
2020,04,24,13,36,12.20
2020,04,24,13,37,12.20
2020,04,24,13,38,12.20
2020,04,24,13,39,12.10
2020,04,24,13,41,12.00
2020,04,24,13,42,12.00
2020,04,24,13,43,12.00
2020,04,24,13,44,12.00
2020,04,24,13,46,12.00
2020,04,24,13,47,12.00
2020,04,24,13,48,12.00
2020,04,24,13,49,12.00
2020,04,24,13,51,12.00
2020,04,24,13,52,12.00
2020,04,24,13,53,12.00
2020,04,24,13,54,12.00
2020,04,24,13,56,12.00
2020,04,24,13,57,12.00
2020,04,24,13,58,12.00
2020,04,24,13,59,12.00
2020,04,24,14,01,11.90
2020,04,24,14,02,11.90
2020,04,24,14,03,11.90
2020,04,24,14,04,11.90
2020,04,24,14,06,11.90
2020,04,24,14,07,11.90
2020,04,24,14,08,11.90
2020,04,24,14,09,11.90
2020,04,24,14,11,11.80
2020,04,24,14,12,11.80
2020,04,24,14,13,11.80
2020,04,24,14,14,11.90
2020,04,24,14,16,11.90
2020,04,24,14,17,11.90
2020,04,24,14,18,12.00
2020,04,24,14,19,12.00
2020,04,24,14,21,12.10
2020,04,24,14,22,12.20
2020,04,24,14,23,12.20
2020,04,24,14,24,12.20
2020,04,24,14,26,12.30
2020,04,24,14,27,12.30
2020,04,24,14,28,12.30
2020,04,24,14,29,12.30
2020,04,24,14,31,12.30
2020,04,24,14,32,12.30
2020,04,24,14,33,12.30
2020,04,24,14,34,12.30
2020,04,24,14,36,12.40
2020,04,24,14,37,12.40
2020,04,24,14,38,12.40
2020,04,24,14,39,12.40
2020,04,24,14,41,12.50
2020,04,24,14,42,12.50
2020,04,24,14,43,12.50
2020,04,24,14,44,12.50
2020,04,24,14,46,12.40
2020,04,24,14,47,12.40
2020,04,24,14,48,12.40
2020,04,24,14,49,12.40
2020,04,24,14,51,12.40
2020,04,24,14,52,12.40
2020,04,24,14,53,12.30
2020,04,24,14,54,12.30
2020,04,24,14,55,12.30
2020,04,24,14,56,12.30
2020,04,24,14,57,12.30
2020,04,24,14,58,12.20
2020,04,24,14,59,12.20
2020,04,24,15,00,12.20
2020,04,24,15,01,12.20
2020,04,24,15,02,12.20
2020,04,24,15,03,12.20
2020,04,24,15,04,12.20
2020,04,24,15,05,12.20
2020,04,24,15,06,12.20
2020,04,24,15,07,12.20
2020,04,24,15,08,12.20
2020,04,24,15,09,12.20
2020,04,24,15,10,12.20
2020,04,24,15,11,12.20
2020,04,24,15,12,12.20
2020,04,24,15,13,12.20
2020,04,24,15,14,12.20
2020,04,24,15,15,12.20
2020,04,24,15,16,12.20
2020,04,24,15,17,12.20
2020,04,24,15,18,12.20
2020,04,24,15,19,12.20
2020,04,24,15,20,12.20
2020,04,24,15,21,12.20
2020,04,24,15,22,12.10
2020,04,24,15,23,12.10
2020,04,24,15,24,12.10
2020,04,24,15,25,12.10
2020,04,24,15,26,12.00
2020,04,24,15,27,12.00
2020,04,24,15,28,12.00
2020,04,24,15,29,12.00
2020,04,24,15,30,12.00
2020,04,24,15,31,12.00
2020,04,24,15,32,12.00
2020,04,24,15,33,12.00
2020,04,24,15,34,12.00
2020,04,24,15,35,12.00
2020,04,24,15,36,12.00
2020,04,24,15,37,11.90
2020,04,24,15,38,11.90
2020,04,24,15,39,11.90
2020,04,24,15,40,11.90
2020,04,24,15,41,11.90
2020,04,24,15,42,11.90
2020,04,24,15,43,11.90
2020,04,24,15,44,11.90
2020,04,24,15,45,11.90
2020,04,24,15,46,11.90
2020,04,24,15,47,11.90
2020,04,24,15,48,11.90
2020,04,24,15,49,11.90
2020,04,24,15,50,11.90
2020,04,24,15,51,11.90
2020,04,24,15,52,11.90
2020,04,24,15,53,11.90
2020,04,24,15,54,11.90
2020,04,24,15,55,11.90
2020,04,24,15,56,11.90
2020,04,24,15,57,11.90
2020,04,24,15,58,11.90
2020,04,24,15,59,11.90
2020,04,24,16,00,11.80
2020,04,24,16,01,11.80
2020,04,24,16,02,11.80
2020,04,24,16,03,11.80
2020,04,24,16,04,11.80
2020,04,24,16,05,11.80
2020,04,24,16,06,11.90
2020,04,24,16,07,11.90
2020,04,24,16,08,11.80
2020,04,24,16,09,11.80
2020,04,24,16,10,11.80
2020,04,24,16,11,11.80
2020,04,24,16,12,11.80
2020,04,24,16,13,11.80
2020,04,24,16,14,11.80
2020,04,24,16,15,11.80
2020,04,24,16,16,11.80
2020,04,24,16,17,11.80
2020,04,24,16,18,11.80
2020,04,24,16,19,11.90
2020,04,24,16,20,11.90
2020,04,24,16,21,11.90
2020,04,24,16,22,11.90
2020,04,24,16,23,11.80
2020,04,24,16,24,11.80
2020,04,24,16,25,11.80
2020,04,24,16,26,11.80
2020,04,24,16,27,11.80
2020,04,24,16,28,11.80
2020,04,24,16,29,11.80
2020,04,24,16,30,11.80
2020,04,24,16,31,11.80
2020,04,24,16,32,11.80
2020,04,24,16,33,11.80
2020,04,24,16,34,11.70
2020,04,24,16,35,11.70
2020,04,24,16,36,11.70
2020,04,24,16,37,11.70
2020,04,24,16,38,11.70
2020,04,24,16,39,11.80
2020,04,24,16,40,11.80
2020,04,24,16,41,11.80
2020,04,24,16,42,11.80
2020,04,24,16,43,11.80
2020,04,24,16,44,11.90
2020,04,24,16,45,11.90
2020,04,24,16,46,12.00
2020,04,24,16,47,12.00
2020,04,24,16,48,12.10
2020,04,24,16,49,12.10
2020,04,24,16,50,12.10
2020,04,24,16,51,12.10
2020,04,24,16,52,12.10
2020,04,24,16,53,12.10
2020,04,24,16,54,12.10
2020,04,24,16,55,12.20
2020,04,24,16,56,12.20
2020,04,24,16,57,12.20
2020,04,24,16,58,12.20
2020,04,24,16,59,12.30
2020,04,24,17,00,12.20
2020,04,24,17,01,12.20
2020,04,24,17,02,12.20
2020,04,24,17,04,12.30
2020,04,24,17,06,12.30
2020,04,24,17,07,12.30
2020,04,24,17,08,12.30
2020,04,24,17,09,12.30
2020,04,24,17,11,12.40
2020,04,24,17,12,12.40
2020,04,24,17,13,12.40
2020,04,24,17,14,12.50
2020,04,24,17,16,12.50
2020,04,24,17,17,12.50
2020,04,24,17,18,12.40
2020,04,24,17,19,12.40
2020,04,24,17,21,12.30
2020,04,24,17,22,12.30
2020,04,24,17,23,12.30
2020,04,24,17,24,12.30
2020,04,24,17,26,12.20
2020,04,24,17,27,12.20
2020,04,24,17,28,12.10
2020,04,24,17,29,12.10
2020,04,24,17,31,12.00
2020,04,24,17,32,12.00
2020,04,24,17,33,12.00
2020,04,24,17,34,11.90
2020,04,24,17,36,11.90
2020,04,24,17,37,11.80
2020,04,24,17,38,11.80
2020,04,24,17,39,11.80
2020,04,24,17,41,11.80
2020,04,24,17,42,11.70
2020,04,24,17,43,11.70
2020,04,24,17,44,11.60
2020,04,24,17,46,11.60
2020,04,24,17,47,11.60
2020,04,24,17,48,11.60
2020,04,24,17,49,11.40
2020,04,24,17,51,11.40
2020,04,24,17,52,11.40
2020,04,24,17,53,11.40
2020,04,24,17,54,11.40
2020,04,24,17,55,11.40
2020,04,24,17,56,11.30
2020,04,24,17,57,11.30
2020,04,24,17,58,11.30
2020,04,24,17,59,11.20
2020,04,24,18,00,11.20
2020,04,24,18,01,11.20
2020,04,24,18,02,11.20
2020,04,24,18,03,11.20
2020,04,24,18,04,11.20
2020,04,24,18,06,11.20
2020,04,24,18,07,11.20
2020,04,24,18,08,11.20
2020,04,24,18,09,11.20
2020,04,24,18,10,11.30
2020,04,24,18,11,11.30
2020,04,24,18,12,11.30
2020,04,24,18,13,11.30
2020,04,24,18,14,11.30
2020,04,24,18,15,11.30
2020,04,24,18,16,11.30
2020,04,24,18,17,11.30
2020,04,24,18,18,11.30
2020,04,24,18,19,11.30
2020,04,24,18,20,11.30
2020,04,24,18,21,11.30
2020,04,24,18,22,11.30
2020,04,24,18,23,11.30
2020,04,24,18,24,11.30
2020,04,24,18,25,11.30
2020,04,24,18,26,11.30
2020,04,24,18,27,11.40
2020,04,24,18,28,11.40
2020,04,24,18,29,11.40
2020,04,24,18,30,11.40
2020,04,24,18,32,11.60
2020,04,24,18,33,11.60
2020,04,24,18,34,11.60
2020,04,24,18,35,11.60
2020,04,24,18,36,11.60
2020,04,24,18,37,11.40
2020,04,24,18,38,11.40
2020,04,24,18,39,11.40
2020,04,24,18,40,11.40
2020,04,24,18,41,11.40
2020,04,24,18,42,11.40
2020,04,24,18,43,11.40
2020,04,24,18,44,11.30
2020,04,24,18,45,11.40
2020,04,24,18,46,11.40
2020,04,24,18,47,11.40
2020,04,24,18,48,11.40
2020,04,24,18,49,11.40
2020,04,24,18,50,11.40
2020,04,24,18,51,11.40
2020,04,24,18,52,11.40
2020,04,24,18,53,11.40
2020,04,24,18,54,11.40
2020,04,24,18,55,11.40
2020,04,24,18,56,11.40
2020,04,24,18,57,11.40
2020,04,24,18,58,11.40
2020,04,24,18,59,11.40
2020,04,24,19,00,11.40
2020,04,24,19,01,11.40
2020,04,24,19,02,11.40
2020,04,24,19,03,11.40
2020,04,24,19,04,11.40
2020,04,24,19,05,11.40
2020,04,24,19,06,11.40
2020,04,24,19,07,11.40
2020,04,24,19,08,11.40
2020,04,24,19,09,11.60
2020,04,24,19,10,11.60
2020,04,24,19,11,11.60
2020,04,24,19,12,11.60
2020,04,24,19,13,11.60
2020,04,24,19,14,11.60
2020,04,24,19,15,11.60
2020,04,24,19,16,11.60
2020,04,24,19,17,11.60